Flag for India Weather past 2 weeks in Bhinga, Uttar Pradesh, India

Now
115 °F

Clear.


Feels Like: 116 °F
Forecast: 79 / 111 °F
Wind: 7 mph from Northwest

Location: Lucknow / Amausi

Current Time: May 24, 2015 at 5:17:41 PM

Latest Report: May 24, 2015 at 4:30 PM


Visibility: 4 mi

Pressure: 29.42 "Hg

Humidity: 16%

Dew point: 59 °F

Location of BhingaLocation

Historic Weather in Bhinga — Graph

°F

Bhinga temperature yesterday

Maximum temperature yesterday: 115 °F (at 3:00 PM)
Minimum temperature yesterday: 77 °F (at 5:30 AM)
Average temperature yesterday: 98 °F

Past Weeks' High & Low Weather Summary

 TemperatureHumidityPressure
High115 °F (May 23, 3:00 PM)79% (May 10, 5:00 AM)29.89 "Hg (May 10, 5:00 AM)
Low77 °F (May 12, 5:30 AM)13% (May 10, 3:30 PM)29.42 "Hg (May 22, 4:30 PM)
Average94 °F43%29.61 "Hg
* Reported May 9 3:30 PM — May 24 4:00 PM, Bhinga, Weather by CustomWeather, © 2015

Note: Actual official high and low records may vary slightly from our data, if they occured in-between our weather recording intervals... More about our weather records

Advertising

Bhinga weather history for previous 24 hours

 ConditionsComfort  
Time TempWeatherWind HumidityBarometerVisibility
4:00 PM
Sun, May 24
115 °FClear.9 mph16%29.45 "Hg4 mi
3:30 PM115 °FClear.12 mph15%29.45 "Hg4 mi
3:00 PM115 °FClear.12 mph15%29.45 "Hg4 mi
2:30 PM115 °FClear.9 mph18%29.47 "Hg4 mi
2:00 PM115 °FClear.9 mph18%29.47 "Hg4 mi
1:30 PM113 °FClear.8 mph19%29.50 "Hg4 mi
1:00 PM113 °FDuststorm.8 mph17%29.50 "Hg3 mi
12:30 PM111 °FDuststorm.8 mph17%29.50 "Hg3 mi
12:00 PM111 °FDuststorm.7 mph18%29.50 "Hg3 mi
11:30 AM109 °FDuststorm.5 mph22%29.53 "Hg3 mi
11:00 AM109 °FHaze.6 mph21%29.53 "Hg3 mi
10:00 AM106 °FHaze.2 mph26%29.53 "Hg3 mi
9:30 AM104 °FHaze.2 mph28%29.53 "Hg3 mi
8:30 AM95 °FHaze.5 mph34%29.53 "Hg3 mi
8:00 AM93 °FHaze.2 mph36%29.50 "Hg2 mi
7:00 AM86 °FHaze.No wind43%29.50 "Hg2 mi
6:30 AM84 °FHaze.No wind45%29.50 "Hg2 mi
6:00 AM82 °FHaze.No wind48%29.47 "Hg2 mi
5:30 AM84 °FPassing clouds.No wind40%29.47 "Hg2 mi
5:00 AM86 °FPassing clouds.2 mph40%29.45 "Hg2 mi
4:00 AM91 °FPassing clouds.2 mph32%29.45 "Hg2 mi
3:00 AM95 °FPartly cloudy.9 mph25%29.45 "Hg2 mi
1:00 AM88 °FPartly cloudy.No wind35%29.42 "Hg2 mi
12:00 AM93 °FPartly cloudy.No wind28%29.42 "Hg2 mi
11:00 PM
Sat, May 23
99 °FPartly cloudy.No wind22%29.45 "Hg2 mi
10:00 PM100 °FHaze.No wind21%29.47 "Hg2 mi
9:00 PM97 °FHaze.No wind25%29.47 "Hg2 mi
8:00 PM97 °FHaze.No wind30%29.45 "Hg2 mi
7:30 PM100 °FHaze.No wind25%29.42 "Hg3 mi
7:00 PM104 °FPassing clouds.2 mph23%29.42 "Hg3 mi
6:30 PM106 °FPassing clouds.2 mph22%29.42 "Hg3 mi
6:00 PM109 °FDuststorm.6 mph18%29.42 "Hg3 mi
5:30 PM111 °FDuststorm.12 mph16%29.42 "Hg3 mi
5:00 PM113 °FDuststorm.10 mph16%29.42 "Hg3 mi
Weather by CustomWeather, © 2015

See weather overviewHow to use our weather pages